Weather History for Nebraska City, NE

Change the Weather History Date:

Tuesday, October 1, 2013

  Actual Average (KSDA) Record (KSDA)
Temperature  
Mean Temperature 66 °F -  
Max Temperature 80 °F 77 °F 136 °F (1997)
Min Temperature 52 °F 48 °F 26 °F (1985)
Cooling Degree Days 1    
Growing Degree Days 16 (Base 50)    
Moisture  
Dew Point 53 °F    
Average Humidity 62    
Maximum Humidity 100    
Minimum Humidity 38    
Precipitation  
Precipitation 0.00 in - - ()
Sea Level Pressure  
Sea Level Pressure 29.90 in    
Wind  
Wind Speed 6 mph (WSW)    
Max Wind Speed 14 mph    
Max Gust Speed -    
Visibility 10 miles    
Events      
Averages and records for this station are not official NWS values.
T = Trace of Precipitation, MM = Missing Value Source: NWS Daily Summary

Daily Weather History Graph

Daily Weather History Graph

Search for Another Location

Airport:

Trip Planner

Search our weather history database for the weather conditions in past years. The results will help you decide how hot, cold, wet, or windy it might be!

Date:

Astronomy

Oct. 01, 2013 Rise Set
Actual Time 7:20 AM CDT 7:05 PM CDT
Civil Twilight 6:52 AM CDT 7:32 PM CDT
Nautical Twilight 6:21 AM CDT 8:03 PM CDT
Astronomical Twilight 5:49 AM CDT 8:35 PM CDT
Moon 3:54 AM CDT (10/1) 5:09 PM CDT (10/1)
Length of Visible Light 12h 39m
Length of Day
11h 44m
Waning Crescent, 12% of the Moon is Illuminated
Oct 1
Waning Crescent
Oct 4
New
Oct 11
First Quarter
Oct 18
Full
Oct 26
Last Quarter

Hourly Weather History & Observations

Time (CDT) Temp. Heat Index Dew Point Humidity Pressure Visibility Wind Dir Wind Speed Gust Speed Precip Events Conditions
12:15 AM 64.2 °F - 49.6 °F 59% 29.80 in 10.0 mi SSW 13.8 mph - N/A   Clear
12:35 AM 63.7 °F - 49.8 °F 61% 29.81 in 10.0 mi SSW 10.4 mph - N/A   Clear
12:55 AM 62.8 °F - 50.0 °F 63% 29.81 in 10.0 mi SSW 11.5 mph - N/A   Clear
1:15 AM 61.9 °F - 50.0 °F 65% 29.81 in 10.0 mi SSW 9.2 mph - N/A   Clear
1:35 AM 61.9 °F - 50.4 °F 66% 29.82 in 10.0 mi SSW 9.2 mph - N/A   Clear
1:55 AM 61.7 °F - 50.9 °F 68% 29.81 in 10.0 mi SSW 10.4 mph - N/A   Clear
2:15 AM 61.2 °F - 50.9 °F 69% 29.81 in 10.0 mi SSW 11.5 mph - N/A   Clear
2:35 AM 60.8 °F - 50.9 °F 70% 29.81 in 10.0 mi SSW 9.2 mph - N/A   Clear
2:55 AM 59.4 °F - 50.9 °F 74% 29.81 in 10.0 mi SSW 8.1 mph - N/A   Clear
3:15 AM 59.5 °F - 50.9 °F 73% 29.81 in 10.0 mi SSW 6.9 mph - N/A   Clear
3:35 AM 58.5 °F - 51.3 °F 77% 29.81 in 10.0 mi SSW 8.1 mph - N/A   Clear
3:55 AM 59.0 °F - 51.4 °F 76% 29.81 in 10.0 mi SSW 9.2 mph - N/A   Clear
4:15 AM 58.5 °F - 51.8 °F 79% 29.82 in 10.0 mi SW 6.9 mph - N/A   Clear
4:35 AM 56.3 °F - 51.1 °F 83% 29.82 in 10.0 mi SSW 5.8 mph - N/A   Clear
4:55 AM 55.9 °F - 51.3 °F 84% 29.83 in 10.0 mi SSW 6.9 mph - N/A   Clear
5:15 AM 55.4 °F - 51.1 °F 85% 29.84 in 10.0 mi SSW 6.9 mph - N/A   Clear
5:35 AM 55.9 °F - 51.4 °F 85% 29.86 in 10.0 mi WSW 4.6 mph - N/A   Clear
5:55 AM 54.7 °F - 51.1 °F 88% 29.86 in 10.0 mi South 3.5 mph - N/A   Clear
6:15 AM 53.8 °F - 50.7 °F 89% 29.87 in 10.0 mi Calm Calm - N/A   Clear
6:35 AM 52.3 °F - 52.3 °F 100% 29.87 in 10.0 mi SW 5.8 mph - N/A   Clear
6:55 AM 54.0 °F - 53.2 °F 97% 29.88 in 10.0 mi SW 4.6 mph - N/A   Clear
7:15 AM 52.5 °F - 52.5 °F 100% 29.89 in 10.0 mi Calm Calm - N/A   Clear
7:35 AM 52.2 °F - 52.2 °F 100% 29.89 in 10.0 mi South 3.5 mph - N/A   Clear
7:55 AM 52.3 °F - 52.3 °F 100% 29.90 in 10.0 mi North 6.9 mph - N/A   Clear
8:15 AM 54.9 °F - 54.7 °F 99% 29.91 in 10.0 mi North 4.6 mph - N/A   Clear
8:35 AM 57.4 °F - 55.4 °F 93% 29.91 in 10.0 mi Calm Calm - N/A   Clear
8:55 AM 60.6 °F - 54.3 °F 80% 29.91 in 10.0 mi SW 4.6 mph - N/A   Clear
9:15 AM 61.9 °F - 54.3 °F 76% 29.92 in 10.0 mi WSW 4.6 mph - N/A   Clear
9:35 AM 64.8 °F - 54.5 °F 69% 29.93 in 10.0 mi WSW 8.1 mph - N/A   Clear
9:55 AM 67.1 °F - 53.8 °F 62% 29.94 in 10.0 mi West 8.1 mph - N/A   Clear
10:15 AM 68.4 °F - 53.8 °F 60% 29.94 in 10.0 mi WNW 6.9 mph - N/A   Clear
10:35 AM 68.9 °F - 54.3 °F 60% 29.94 in 10.0 mi NW 8.1 mph - N/A   Clear
10:55 AM 70.2 °F - 54.5 °F 57% 29.94 in 10.0 mi North 5.8 mph - N/A   Clear
11:15 AM 71.4 °F - 54.5 °F 55% 29.95 in 10.0 mi NNW 5.8 mph - N/A   Clear
11:35 AM 72.1 °F - 53.8 °F 52% 29.95 in 10.0 mi NNE 5.8 mph - N/A   Clear
11:55 AM 71.8 °F - 52.9 °F 51% 29.95 in 10.0 mi NNE 4.6 mph - N/A   Clear
12:15 PM 73.0 °F - 52.5 °F 48% 29.95 in 10.0 mi Calm Calm - N/A   Clear
12:35 PM 74.5 °F - 53.1 °F 47% 29.95 in 10.0 mi Calm Calm - N/A   Clear
12:55 PM 74.8 °F - 52.9 °F 46% 29.95 in 10.0 mi Calm Calm - N/A   Clear
1:15 PM 75.4 °F - 52.9 °F 45% 29.94 in 10.0 mi Calm Calm - N/A   Clear
1:35 PM 76.8 °F - 53.4 °F 44% 29.94 in 10.0 mi Calm Calm - N/A   Clear
1:55 PM 77.4 °F - 53.2 °F 43% 29.94 in 10.0 mi Calm Calm - N/A   Clear
2:15 PM 78.1 °F - 52.7 °F 41% 29.93 in 10.0 mi Calm Calm - N/A   Clear
2:35 PM 78.3 °F - 52.9 °F 41% 29.93 in 10.0 mi NNE 5.8 mph - N/A   Clear
2:55 PM 79.2 °F - 52.9 °F 40% 29.92 in 10.0 mi Calm Calm - N/A   Clear
3:15 PM 79.3 °F - 52.9 °F 40% 29.92 in 10.0 mi NNE 4.6 mph - N/A   Clear
3:35 PM 79.3 °F - 52.5 °F 39% 29.92 in 10.0 mi Calm Calm - N/A   Clear
3:55 PM 79.5 °F - 53.4 °F 40% 29.92 in 10.0 mi Calm Calm - N/A   Clear
4:15 PM 80.2 °F - 52.5 °F 38% 29.93 in 10.0 mi NW 3.5 mph - N/A   Clear
4:35 PM 80.4 °F - 52.9 °F 38% 29.92 in 10.0 mi NW 4.6 mph - N/A   Clear
4:55 PM 80.6 °F 80.3 °F 53.6 °F 39% 29.92 in 10.0 mi Calm Calm - N/A   Clear
5:15 PM 80.1 °F - 52.9 °F 39% 29.92 in 10.0 mi NE 3.5 mph - N/A   Clear
5:35 PM 80.1 °F 79.9 °F 53.1 °F 39% 29.92 in 10.0 mi NE 5.8 mph - N/A   Clear
5:55 PM 79.7 °F - 52.7 °F 39% 29.92 in 10.0 mi NE 3.5 mph - N/A   Clear
6:15 PM 78.8 °F - 53.6 °F 42% 29.92 in 10.0 mi Calm Calm - N/A   Clear
6:35 PM 77.9 °F - 54.0 °F 43% 29.92 in 10.0 mi NNE 3.5 mph - N/A   Clear
6:55 PM 76.1 °F - 54.3 °F 47% 29.92 in 10.0 mi North 3.5 mph - N/A   Clear
7:15 PM 74.1 °F - 55.2 °F 52% 29.92 in 10.0 mi North 4.6 mph - N/A   Clear
7:35 PM 72.9 °F - 55.2 °F 54% 29.93 in 10.0 mi North 3.5 mph - N/A   Clear
7:55 PM 71.6 °F - 55.4 °F 57% 29.93 in 10.0 mi Calm Calm - N/A   Clear
8:15 PM 71.1 °F - 55.4 °F 58% 29.94 in 10.0 mi Calm Calm - N/A   Clear
8:35 PM 70.5 °F - 55.0 °F 58% 29.94 in 10.0 mi Calm Calm - N/A   Clear
8:55 PM 70.7 °F - 55.0 °F 58% 29.94 in 10.0 mi Calm Calm - N/A   Clear
9:15 PM 69.8 °F - 55.0 °F 59% 29.95 in 10.0 mi Calm Calm - N/A   Clear
9:35 PM 68.9 °F - 55.0 °F 61% 29.95 in 10.0 mi Calm Calm - N/A   Clear
9:55 PM 68.4 °F - 54.9 °F 62% 29.95 in 10.0 mi Calm Calm - N/A   Clear
10:15 PM 68.2 °F - 55.0 °F 63% 29.95 in 10.0 mi Calm Calm - N/A   Clear
10:35 PM 68.5 °F - 54.5 °F 61% 29.96 in 10.0 mi East 4.6 mph - N/A   Clear
10:55 PM 67.5 °F - 54.7 °F 64% 29.96 in 10.0 mi ESE 4.6 mph - N/A   Clear
11:15 PM 67.5 °F - 54.9 °F 64% 29.96 in 10.0 mi ESE 3.5 mph - N/A   Clear
11:35 PM 67.6 °F - 54.7 °F 63% 29.96 in 10.0 mi Calm Calm - N/A   Clear
11:55 PM 68.2 °F - 54.7 °F 62% 29.96 in 10.0 mi SE 3.5 mph - N/A   Clear